Norwegian Crown — C6II4 — position and weather

sailwx.info

Track history (hours):
 
Tides and Currents Weather Stations Pressure Air Temp Water Temp Dewpoint Dewpoint Depression Visibility Wind Speed Wind Dir Waves Ship Positions

Norwegian Crown

Operator: Norwegian Cruise Line

Last reported at 2014-Oct-25 18:33 UTC. Time now 2014-Oct-25 20:34 UTC.
Position N 54°21' E 004°55'.

Type: Passenger vessel. MMSI: 308785000.

Date/timePositionNaut miles runAvg speedWind from/ knotsBaromVisibWave heightAir tempDewpointWater temp
2014-Oct-25 18:33N 54°21' E 004°55'1311.7
2014-Oct-25 17:25N 54°09' E 004°43'1011.7
2014-Oct-25 16:33N 53°60' E 004°38'15511.9
2014-Oct-25 03:28N 51°44' E 002°32'1617.9
2014-Oct-25 02:33N 51°32' E 002°15'1818.4
2014-Oct-25 01:33N 51°18' E 001°56'1919.1
2014-Oct-25 00:34N 51°03' E 001°37'2018.7
2014-Oct-24 23:28N 50°46' E 001°21'1617.5
2014-Oct-24 22:33N 50°34' E 001°03'1817.7
2014-Oct-24 21:33N 50°28' E 000°36'3617.6
2014-Oct-24 19:31N 50°25' W 000°19'1717.8
2014-Oct-24 18:34N 50°33' W 000°43'1515.4
2014-Oct-24 17:33N 50°43' W 001°01'1313.1
2014-Oct-24 16:33N 50°50' W 001°19'6 5.0
2014-Oct-24 15:26N 50°54' W 001°25'0 0.0
2014-Oct-24 14:32N 50°54' W 001°25'0 0.0
2014-Oct-24 13:29N 50°54' W 001°25'0 0.0
2014-Oct-24 12:32N 50°54' W 001°25'0 0.0
2014-Oct-24 11:29N 50°54' W 001°25'0 0.0
2014-Oct-24 10:32N 50°54' W 001°25'0 0.0
2014-Oct-24 09:32N 50°54' W 001°25'0 0.0
2014-Oct-24 08:33N 50°54' W 001°25'0 0.0
2014-Oct-24 07:33N 50°54' W 001°25'0 0.0
2014-Oct-24 06:33N 50°54' W 001°25'0 0.0
2014-Oct-24 05:33N 50°54' W 001°25'6 6.0
2014-Oct-24 04:33N 50°50' W 001°19'1211.8
2014-Oct-24 03:33N 50°44' W 001°02'7 6.5
2014-Oct-24 02:33N 50°38' W 000°58'9 9.1
2014-Oct-24 01:33N 50°29' W 001°05'11 8.2
2014-Oct-24 00:15N 50°27' W 001°21'4010.5
2014-Oct-23 20:28N 50°15' W 002°21'1314.1
2014-Oct-23 19:33N 50°11' W 002°40'1413.8
2014-Oct-23 18:33N 50°07' W 003°00'1312.7
2014-Oct-23 17:33N 50°01' W 003°18'54511.8
2014-Oct-21 19:29N 41°57' W 009°17'112 5.8
2014-Oct-21 00:21N 40°06' W 009°29'2311.4
2014-Oct-20 22:20N 39°45' W 009°42'1314.2
2014-Oct-20 21:23N 39°32' W 009°46'1915.2
2014-Oct-20 20:09N 39°13' W 009°45'914.9
2014-Oct-20 19:33N 39°04' W 009°44'3110.5
2014-Oct-20 16:33N 38°41' W 009°17'8 6.3
2014-Oct-20 15:22N 38°43' W 009°07'0 0.0
2014-Oct-20 08:22N 38°43' W 009°07'0 0.0
2014-Oct-20 07:22N 38°43' W 009°07'0 0.4
2014-Oct-20 06:33N 38°43' W 009°07'9 9.4
2014-Oct-20 05:34N 38°40' W 009°19'1312.9
2014-Oct-20 04:34N 38°31' W 009°30'1615.6
2014-Oct-20 03:33N 38°20' W 009°44'1414.3
2014-Oct-20 02:33N 38°10' W 009°57'1110.9
2014-Oct-20 01:33N 38°02' W 010°07'1111.2
2014-Oct-20 00:33N 37°54' W 010°17'1211.5
2014-Oct-19 23:33N 37°46' W 010°27'1111.0
2014-Oct-19 22:33N 37°38' W 010°37'1110.9
2014-Oct-19 21:32N 37°30' W 010°47'1010.4
2014-Oct-19 20:33N 37°23' W 010°56'1110.6
2014-Oct-19 19:33N 37°15' W 011°05'1110.9
2014-Oct-19 18:33N 37°07' W 011°15'1310.7
2014-Oct-19 17:22N 36°58' W 011°26'911.1
2014-Oct-19 16:33N 36°52' W 011°34'1111.3
2014-Oct-19 15:33N 36°44' W 011°44'34815.7
2014-Oct-18 17:23N 32°38' W 016°44'910.9
2014-Oct-18 16:32N 32°39' W 016°55'0 0.0
2014-Oct-18 15:32N 32°39' W 016°55'0 0.0
2014-Oct-18 14:32N 32°39' W 016°55'0 0.0
2014-Oct-18 13:32N 32°39' W 016°55'0 0.0
2014-Oct-18 12:29N 32°39' W 016°55'0 0.0
2014-Oct-18 11:32N 32°39' W 016°55'0 0.0
2014-Oct-18 10:32N 32°39' W 016°55'0 0.0
2014-Oct-18 09:32N 32°39' W 016°55'0 0.0
2014-Oct-18 08:32N 32°39' W 016°55'0 0.0
2014-Oct-18 07:32N 32°39' W 016°55'0 0.0
2014-Oct-18 06:29N 32°39' W 016°55'0 0.0
2014-Oct-18 05:32N 32°39' W 016°55'0 0.0
2014-Oct-18 04:29N 32°39' W 016°55'0 0.0
2014-Oct-18 03:32N 32°39' W 016°55'0 0.0
2014-Oct-18 02:29N 32°39' W 016°55'0 0.0
2014-Oct-18 01:32N 32°39' W 016°55'0 0.0
2014-Oct-18 00:32N 32°39' W 016°55'0 0.0
2014-Oct-17 23:32N 32°39' W 016°55'0 0.0
2014-Oct-17 22:29N 32°39' W 016°55'0 0.0
2014-Oct-17 21:32N 32°39' W 016°55'0 0.0
2014-Oct-17 20:32N 32°39' W 016°55'0 0.0
2014-Oct-17 19:32N 32°39' W 016°55'0 0.0
2014-Oct-17 18:32N 32°39' W 016°55'0 0.0
2014-Oct-17 17:32N 32°39' W 016°55'0 0.0
2014-Oct-17 16:32N 32°39' W 016°55'0 0.0
2014-Oct-17 15:32N 32°39' W 016°55'0 0.0
2014-Oct-17 14:32N 32°39' W 016°55'0 0.0
2014-Oct-17 13:32N 32°39' W 016°55'0 0.0
2014-Oct-17 12:29N 32°39' W 016°55'0 0.0
2014-Oct-17 11:32N 32°39' W 016°55'0 0.0
2014-Oct-17 10:32N 32°39' W 016°55'0 0.0
2014-Oct-17 09:32N 32°39' W 016°55'0 0.0
2014-Oct-17 08:32N 32°39' W 016°55'0 0.0
2014-Oct-17 07:32N 32°39' W 016°55'1 0.6
2014-Oct-17 06:33N 32°38' W 016°54'8 8.2
2014-Oct-17 05:33N 32°37' W 017°04'1111.1
2014-Oct-17 04:34N 32°40' W 017°17'1211.6
2014-Oct-17 03:33N 32°46' W 017°28'36513.9
2014-Oct-16 01:20N 36°17' W 023°29'1215.9
2014-Oct-16 00:33N 36°25' W 023°41'1616.1
2014-Oct-15 23:33N 36°34' W 023°58'1615.9
2014-Oct-15 22:33N 36°43' W 024°14'1616.1
2014-Oct-15 21:33N 36°53' W 024°30'1616.0
2014-Oct-15 20:33N 37°02' W 024°47'1616.1
2014-Oct-15 19:34N 37°12' W 025°02'1616.4
2014-Oct-15 18:34N 37°24' W 025°16'  
Track history (hours):
 
Tides and Currents Weather Stations Pressure Air Temp Water Temp Dewpoint Dewpoint Depression Visibility Wind Speed Wind Dir Waves Ship Positions

Norwegian Crown

Operator: Norwegian Cruise Line

Last reported at 2014-Oct-25 18:33 UTC. Time now 2014-Oct-25 20:34 UTC.
Position N 54°21' E 004°55'.

Type: Passenger vessel. MMSI: 308785000.

Date/timePositionNaut miles runAvg speedWind from/ knotsBaromVisibWave heightAir tempDewpointWater temp
2014-Oct-25 18:33N 54°21' E 004°55'1311.7
2014-Oct-25 17:25N 54°09' E 004°43'1011.7
2014-Oct-25 16:33N 53°60' E 004°38'15511.9
2014-Oct-25 03:28N 51°44' E 002°32'1617.9
2014-Oct-25 02:33N 51°32' E 002°15'1818.4
2014-Oct-25 01:33N 51°18' E 001°56'1919.1
2014-Oct-25 00:34N 51°03' E 001°37'2018.7
2014-Oct-24 23:28N 50°46' E 001°21'1617.5
2014-Oct-24 22:33N 50°34' E 001°03'1817.7
2014-Oct-24 21:33N 50°28' E 000°36'3617.6
2014-Oct-24 19:31N 50°25' W 000°19'1717.8
2014-Oct-24 18:34N 50°33' W 000°43'1515.4
2014-Oct-24 17:33N 50°43' W 001°01'1313.1
2014-Oct-24 16:33N 50°50' W 001°19'6 5.0
2014-Oct-24 15:26N 50°54' W 001°25'0 0.0
2014-Oct-24 14:32N 50°54' W 001°25'0 0.0
2014-Oct-24 13:29N 50°54' W 001°25'0 0.0
2014-Oct-24 12:32N 50°54' W 001°25'0 0.0
2014-Oct-24 11:29N 50°54' W 001°25'0 0.0
2014-Oct-24 10:32N 50°54' W 001°25'0 0.0
2014-Oct-24 09:32N 50°54' W 001°25'0 0.0
2014-Oct-24 08:33N 50°54' W 001°25'0 0.0
2014-Oct-24 07:33N 50°54' W 001°25'0 0.0
2014-Oct-24 06:33N 50°54' W 001°25'0 0.0
2014-Oct-24 05:33N 50°54' W 001°25'6 6.0
2014-Oct-24 04:33N 50°50' W 001°19'1211.8
2014-Oct-24 03:33N 50°44' W 001°02'7 6.5
2014-Oct-24 02:33N 50°38' W 000°58'9 9.1
2014-Oct-24 01:33N 50°29' W 001°05'11 8.2
2014-Oct-24 00:15N 50°27' W 001°21'4010.5
2014-Oct-23 20:28N 50°15' W 002°21'1314.1
2014-Oct-23 19:33N 50°11' W 002°40'1413.8
2014-Oct-23 18:33N 50°07' W 003°00'1312.7
2014-Oct-23 17:33N 50°01' W 003°18'54511.8
2014-Oct-21 19:29N 41°57' W 009°17'112 5.8
2014-Oct-21 00:21N 40°06' W 009°29'2311.4
2014-Oct-20 22:20N 39°45' W 009°42'1314.2
2014-Oct-20 21:23N 39°32' W 009°46'1915.2
2014-Oct-20 20:09N 39°13' W 009°45'914.9
2014-Oct-20 19:33N 39°04' W 009°44'3110.5
2014-Oct-20 16:33N 38°41' W 009°17'8 6.3
2014-Oct-20 15:22N 38°43' W 009°07'0 0.0
2014-Oct-20 08:22N 38°43' W 009°07'0 0.0
2014-Oct-20 07:22N 38°43' W 009°07'0 0.4
2014-Oct-20 06:33N 38°43' W 009°07'9 9.4
2014-Oct-20 05:34N 38°40' W 009°19'1312.9
2014-Oct-20 04:34N 38°31' W 009°30'1615.6
2014-Oct-20 03:33N 38°20' W 009°44'1414.3
2014-Oct-20 02:33N 38°10' W 009°57'1110.9
2014-Oct-20 01:33N 38°02' W 010°07'1111.2
2014-Oct-20 00:33N 37°54' W 010°17'1211.5
2014-Oct-19 23:33N 37°46' W 010°27'1111.0
2014-Oct-19 22:33N 37°38' W 010°37'1110.9
2014-Oct-19 21:32N 37°30' W 010°47'1010.4
2014-Oct-19 20:33N 37°23' W 010°56'1110.6
2014-Oct-19 19:33N 37°15' W 011°05'1110.9
2014-Oct-19 18:33N 37°07' W 011°15'1310.7
2014-Oct-19 17:22N 36°58' W 011°26'911.1
2014-Oct-19 16:33N 36°52' W 011°34'1111.3
2014-Oct-19 15:33N 36°44' W 011°44'34815.7
2014-Oct-18 17:23N 32°38' W 016°44'910.9
2014-Oct-18 16:32N 32°39' W 016°55'0 0.0
2014-Oct-18 15:32N 32°39' W 016°55'0 0.0
2014-Oct-18 14:32N 32°39' W 016°55'0 0.0
2014-Oct-18 13:32N 32°39' W 016°55'0 0.0
2014-Oct-18 12:29N 32°39' W 016°55'0 0.0
2014-Oct-18 11:32N 32°39' W 016°55'0 0.0
2014-Oct-18 10:32N 32°39' W 016°55'0 0.0
2014-Oct-18 09:32N 32°39' W 016°55'0 0.0
2014-Oct-18 08:32N 32°39' W 016°55'0 0.0
2014-Oct-18 07:32N 32°39' W 016°55'0 0.0
2014-Oct-18 06:29N 32°39' W 016°55'0 0.0
2014-Oct-18 05:32N 32°39' W 016°55'0 0.0
2014-Oct-18 04:29N 32°39' W 016°55'0 0.0
2014-Oct-18 03:32N 32°39' W 016°55'0 0.0
2014-Oct-18 02:29N 32°39' W 016°55'0 0.0
2014-Oct-18 01:32N 32°39' W 016°55'0 0.0
2014-Oct-18 00:32N 32°39' W 016°55'0 0.0
2014-Oct-17 23:32N 32°39' W 016°55'0 0.0
2014-Oct-17 22:29N 32°39' W 016°55'0 0.0
2014-Oct-17 21:32N 32°39' W 016°55'0 0.0
2014-Oct-17 20:32N 32°39' W 016°55'0 0.0
2014-Oct-17 19:32N 32°39' W 016°55'0 0.0
2014-Oct-17 18:32N 32°39' W 016°55'0 0.0
2014-Oct-17 17:32N 32°39' W 016°55'0 0.0
2014-Oct-17 16:32N 32°39' W 016°55'0 0.0
2014-Oct-17 15:32N 32°39' W 016°55'0 0.0
2014-Oct-17 14:32N 32°39' W 016°55'0 0.0
2014-Oct-17 13:32N 32°39' W 016°55'0 0.0
2014-Oct-17 12:29N 32°39' W 016°55'0 0.0
2014-Oct-17 11:32N 32°39' W 016°55'0 0.0
2014-Oct-17 10:32N 32°39' W 016°55'0 0.0
2014-Oct-17 09:32N 32°39' W 016°55'0 0.0
2014-Oct-17 08:32N 32°39' W 016°55'0 0.0
2014-Oct-17 07:32N 32°39' W 016°55'1 0.6
2014-Oct-17 06:33N 32°38' W 016°54'8 8.2
2014-Oct-17 05:33N 32°37' W 017°04'1111.1
2014-Oct-17 04:34N 32°40' W 017°17'1211.6
2014-Oct-17 03:33N 32°46' W 017°28'36513.9
2014-Oct-16 01:20N 36°17' W 023°29'1215.9
2014-Oct-16 00:33N 36°25' W 023°41'1616.1
2014-Oct-15 23:33N 36°34' W 023°58'1615.9
2014-Oct-15 22:33N 36°43' W 024°14'1616.1
2014-Oct-15 21:33N 36°53' W 024°30'1616.0
2014-Oct-15 20:33N 37°02' W 024°47'1616.1
2014-Oct-15 19:34N 37°12' W 025°02'1616.4
2014-Oct-15 18:34N 37°24' W 025°16'  

Dump ship's entire track history